Погода в Красных Баках

Россия / Нижегородская область     57°07′42″N   45°09′21″E
темп.,
°C
ветер,
м/с
пор.,
м/с
влажн.,
%
обл.,
%
осадки,
мм/ч
давл.,
гПа
погр.,
м
2 декабря, чт
чт200:00−4юз4991100 0.2 990682
03:00−4зюз489293 0.6 992761
06:00−6зюз498890 0.1 993581
09:00−5зюз498690 0.1 996721
12:00−4зюз598191 0.0 998772
15:00−5зюз5977100 0.1 1000919
18:00−6зюз41080100 0.0 1002836
21:00−5юз41081100 0.1 1002744
3 декабря, пт
пт300:00−5юз3981100 0.0 1002591
03:00−5ю399290 0.2 1001466
06:00−4ю399396 0.1 1000488
09:00−3ююз3109695 0.6 1001494
12:00+1юз41192100 0.3 1002687
15:00+1юз4992100 0.4 1004517
18:00+1ююз41091100 0.0 1005476
21:000ю41093100 0.0 1006477
4 декабря, сб
сб400:000ююв41299100 0.8 1003589
03:00+2ю61597100 3.4 1000864
06:00+3ю61497100 2.1 9971129
09:00+2з71297100 4.5 998861
12:000зюз6117896 0.1 10011029
15:00−1зюз51083100 0.2 10031176
18:00−2юз5108482 0.1 10051139
21:00−3зюз51084100 0.1 1007951
5 декабря, вс
вс500:00−3зюз4108594 0.1 1008794
03:00−4зюз4108687 0.1 1010738
06:00−4з498799 0.1 1012857
09:00−7сз4883100 0.1 1015692
12:00−8сз4674100 0.0 1018718
15:00−9сз4774100 0.1 1019754
18:00−10сз367473 0.0 1021571
21:00−12ссз357426 0.0 1023524
6 декабря, пн
пн600:00−13ссз35745 0.0 1025465
03:00−14ссз347512 0.0 1027425
06:00−15с34786 0.0 1028373
09:00−15ссв247855 0.0 1030328
12:00−14св237058 0.0 1032457
15:00−14св237367 0.0 1033382
18:00−14в2577100 0.0 1033331
21:00−13в37795 0.0 1033348